CAPE
908 928 736 423 13 16 473 415 348 256 23 0 56 102 3 0 0 0 0 0 0 1 1 0 0 0 1 1 0 0 0 0 1
754 691 622 539 464 171 122 636 557 500 167 0 0 36 0 0 0 0 0 0 0 0 1 0 2 1 1 0 0 0 0 0 0
469 610 555 583 569 575 158 580 645 506 449 42 0 3 0 0 0 0 0 0 0 5 1 1 1 2 1 2 1 1 0 0 0
314 275 434 467 611 587 576 244 595 634 559 318 3 0 0 0 0 0 0 0 0 5 0 2 2 3 2 2 1 1 0 0 0
240 271 216 192 227 319 448 405 216 419 528 288 126 0 0 0 0 0 0 0 0 6 5 1 1 2 2 2 2 1 0 0 0
0 89 86 123 131 162 186 259 350 301 172 217 199 44 0 0 0 0 0 0 0 8 32 3 2 1 1 2 1 0 0 0 0
0 4 85 87 127 137 163 253 240 287 352 251 288 132 12 0 0 0 0 0 0 45 119 17 3 3 3 2 0 0 0 0 0
0 0 0 7 69 30 28 53 133 222 221 236 173 157 79 0 0 0 0 0 0 58 162 124 14 2 4 2 1 0 0 0 0
0 0 0 0 0 0 68 71 133 163 259 249 175 135 108 27 0 0 0 0 0 30 120 270 149 17 4 5 2 1 0 0 0
0 0 0 0 0 0 1 31 106 166 207 192 177 157 111 92 17 0 0 0 0 0 100 264 416 151 41 6 6 4 2 0 0
0 0 0 0 0 0 0 0 42 99 165 163 115 124 131 121 67 7 0 0 0 0 7 266 312 319 146 77 35 10 5 5 3
0 0 0 0 0 0 0 0 11 133 142 150 204 136 108 85 78 42 0 0 0 0 0 5 195 350 245 191 85 32 37 5 4
0 0 0 0 0 0 1 2 2 39 214 242 206 175 139 79 53 38 18 3 0 0 0 0 5 164 347 281 196 148 47 48 36
0 0 0 0 0 0 0 0 2 0 75 209 226 262 249 196 91 30 20 4 0 0 0 0 0 9 98 230 196 219 134 108 89
0 1 1 1 2 3 0 0 0 5 61 201 215 180 243 236 126 50 1 0 0 0 0 0 0 0 1 24 55 85 172 92 93
0 0 0 0 0 2 9 0 0 0 47 266 224 208 214 211 159 106 85 26 3 0 0 0 0 0 0 3 9 28 41 40 60
0 0 2 1 0 0 1 9 20 53 78 306 228 160 125 127 162 244 182 91 2 0 0 0 0 0 0 2 0 0 2 11 35
0 0 1 3 3 2 2 10 40 111 293 277 300 209 152 76 79 179 148 122 19 1 0 0 0 0 1 0 0 0 0 0 0
0 0 0 0 2 3 3 4 59 161 162 362 444 346 192 119 43 51 151 167 64 39 10 4 0 1 0 0 1 1 1 11 48
0 0 0 0 0 1 2 3 2 2 195 264 363 458 289 192 136 81 41 22 118 149 91 57 20 4 0 0 0 0 0 5 19
CIN
-2 -0 -1 -9 -194 -53 -7 -9 -6 -22 -114 -0 -95 -65 -44 -0 -0 -0 -0 -0 -0 -0 -0 -0 -0 -0 -0 -0 -0 -0 -0 -0 -0
-4 -3 -4 -4 -9 -84 -94 -1 -1 -4 -45 -3 -0 -80 -0 -0 -0 -0 -0 -0 -0 -0 -0 -0 -0 -0 -0 -0 -0 -0 -0 -0 -0
-4 -4 -7 -5 -4 -3 -67 -4 -1 -3 -5 -112 -17 -164 -0 -0 -0 -0 -0 -0 -0 -0 -0 -0 -0 -0 -0 -0 -0 -0 -0 -0 -0
-3 -11 -5 -5 -3 -5 -5 -34 -3 -1 -3 -17 -42 -0 -0 -0 -0 -0 -0 -0 -0 -0 -0 -0 -0 -0 -0 -0 -0 -0 -0 -0 -0
-10 -9 -12 -16 -9 -7 -7 -8 -34 -7 -4 -12 -59 -2 -0 -0 -0 -0 -0 -0 -0 -0 -0 -0 -0 -0 -0 -0 -0 -0 -0 -0 -0
-0 -23 -24 -29 -26 -18 -11 -8 -6 -9 -30 -10 -9 -45 -0 -0 -0 -0 -0 -0 -0 -12 -96 -0 -0 -0 -0 -0 -0 -0 -0 -0 -0
-0 -4 -24 -22 -23 -31 -34 -17 -11 -4 -3 -14 -9 -44 -133 -0 -0 -0 -0 -0 -0 -64 -20 -9 -0 -0 -0 -0 -0 -0 -0 -0 -0
-0 -0 -0 -9 -42 -38 -44 -45 -37 -27 -24 -15 -17 -33 -63 -0 -0 -0 -0 -0 -0 -3 -8 -19 -5 -0 -0 -0 -0 -0 -0 -0 -0
-0 -0 -0 -0 -0 -0 -47 -39 -41 -34 -44 -41 -25 -32 -49 -94 -0 -0 -0 -0 -0 -33 -16 -1 -6 -1 -0 -0 -0 -0 -0 -0 -0
-0 -0 -0 -0 -0 -0 -17 -62 -38 -32 -34 -32 -32 -43 -53 -58 -91 -0 -0 -0 -0 -0 -4 -1 -0 -6 -7 -0 -0 -0 -0 -0 -0
-0 -0 -0 -0 -0 -0 -0 -0 -43 -27 -33 -21 -34 -41 -43 -48 -67 -108 -0 -0 -0 -0 -14 -1 -0 -0 -0 -4 -12 -3 -0 -0 -0
-0 -0 -0 -0 -0 -0 -0 -0 -41 -29 -32 -30 -34 -41 -54 -54 -63 -78 -0 -0 -0 -0 -0 -8 -3 -1 -4 -0 -1 -10 -8 -2 -1
-0 -0 -0 -0 -0 -0 -0 -1 -1 -7 -1 -10 -30 -37 -44 -59 -79 -83 -87 -101 -0 -0 -0 -0 -56 -5 -0 -0 -0 -1 -9 -14 -13
-0 -0 -0 -0 -0 -0 -0 -0 -0 -1 -1 -4 -20 -17 -13 -23 -67 -115 -104 -66 -0 -0 -0 -0 -25 -38 -2 -0 -0 -0 -3 -3 -7
-0 -0 -0 -0 -0 -0 -0 -0 -0 -2 -3 -0 -15 -11 -10 -13 -48 -97 -74 -0 -0 -0 -0 -0 -0 -0 -29 -18 -1 -0 -1 -5 -3
-0 -0 -0 -0 -0 -0 -0 -0 -0 -0 -7 -3 -2 -10 -15 -11 -23 -57 -81 -112 -95 -0 -0 -0 -0 -0 -0 -96 -50 -14 -4 -0 -1
-0 -0 -0 -0 -0 -0 -1 -1 -8 -7 -16 -1 -0 -0 -41 -69 -49 -29 -44 -83 -79 -0 -0 -0 -0 -0 -0 -91 -0 -0 -10 -6 -0
-0 -0 -0 -0 -0 -0 -0 -28 -12 -1 -1 -5 -2 -1 -1 -32 -91 -61 -58 -55 -90 -0 -0 -0 -0 -0 -0 -0 -0 -0 -0 -0 -0
-0 -0 -0 -0 -0 -0 -0 -0 -17 -6 -5 -4 -6 -6 -5 -3 -18 -88 -54 -39 -55 -58 -66 -54 -0 -47 -1 -0 -0 -0 -0 -40 -3
-0 -0 -0 -0 -0 -0 -0 -0 -0 -0 -8 -2 -0 -0 -1 -7 -2 -2 -21 -56 -36 -27 -41 -41 -40 -41 -0 -0 -0 -0 -0 -0 -8
Wind_Speed
17 16 16 16 15 14 17 15 10 10 11 10 9 10 11 13 15 14 11 12 11 11 11 11 11 10 11 11 11 12 12 12 12
20 21 19 19 18 17 17 15 10 8 9 8 7 8 11 13 15 13 11 12 11 11 10 10 10 10 10 10 11 11 11 11 11
25 24 22 21 21 20 20 19 15 12 11 9 8 7 9 11 14 13 12 12 12 11 11 10 10 10 11 11 11 11 11 11 11
28 28 27 26 24 23 22 21 20 17 15 13 12 10 10 12 13 13 13 13 12 11 10 10 10 10 11 11 11 11 11 11 11
31 31 30 30 29 28 27 26 24 23 20 18 15 15 15 13 13 14 13 11 13 13 11 10 10 10 11 11 12 12 11 11 11
32 31 30 30 31 31 31 30 29 27 26 25 21 19 18 17 17 16 15 12 12 14 13 13 12 11 11 11 12 12 12 12 12
32 32 32 32 31 31 31 32 32 32 29 28 25 24 22 21 20 18 17 16 14 14 13 13 14 14 13 13 12 12 12 13 12
33 33 32 32 33 33 33 32 31 30 30 30 28 27 25 25 24 22 20 18 17 16 16 13 13 14 14 14 14 14 13 12 12
35 35 35 35 34 35 35 34 33 31 29 28 29 30 28 26 26 26 24 22 21 18 16 15 14 15 15 15 15 14 14 14 14
36 36 37 37 37 37 38 38 37 35 33 31 30 30 30 29 28 28 24 23 22 22 20 18 16 16 17 17 16 16 16 15 15
37 38 38 39 38 39 40 41 41 40 36 36 33 32 30 28 29 30 30 28 27 25 25 23 22 19 19 18 18 17 16 16 16
34 35 37 39 39 40 41 42 42 42 40 40 36 35 34 33 31 30 29 30 31 30 28 27 27 26 24 21 20 20 18 16 15
34 35 36 37 39 41 42 42 44 45 43 42 39 38 36 35 34 33 31 29 31 33 32 31 29 27 25 24 24 21 21 19 17
33 34 36 39 40 40 41 44 44 46 46 44 43 41 39 37 34 33 31 31 31 30 31 31 31 33 33 30 29 29 26 21 19
36 35 37 39 39 42 43 44 43 45 46 45 45 42 39 36 35 36 31 31 30 29 27 27 30 33 35 37 39 38 34 31 28
36 37 35 37 39 38 40 44 46 46 45 44 44 43 41 41 37 34 33 31 30 31 30 30 31 25 27 39 42 43 40 38 38
36 37 38 39 38 39 41 42 44 45 40 43 41 45 42 39 38 33 33 33 31 30 30 29 29 29 30 29 32 39 42 43 46
36 36 36 36 36 36 35 36 39 41 40 38 39 39 40 36 34 37 35 34 33 31 30 30 29 28 29 26 23 28 32 39 46
35 35 34 35 36 37 34 34 35 36 40 36 36 39 37 38 40 34 33 32 33 31 31 29 27 26 25 27 24 27 29 35 40
33 34 34 35 36 36 34 34 31 31 34 36 33 32 35 36 39 42 32 28 30 29 27 27 25 25 23 22 25 29 30 32 35
Wind_Direction
343 346 346 348 346 343 336 338 350 347 353 356 355 343 338 334 331 336 345 347 355 358 356 355 358 1 0 360 1 0 358 356 358
329 329 331 331 333 331 329 332 339 339 344 349 351 344 336 329 328 333 336 337 342 345 351 352 353 353 353 353 353 356 358 359 359
318 320 322 322 322 321 319 317 319 317 319 328 329 327 327 328 324 324 328 330 329 333 336 339 341 339 339 339 340 341 344 349 351
311 311 312 312 313 313 312 311 308 308 305 306 310 309 309 313 317 319 320 320 324 325 328 329 331 332 330 330 330 331 334 337 340
308 307 306 307 307 306 305 303 303 300 300 297 296 298 297 301 304 309 312 315 315 315 319 320 323 324 324 324 324 325 327 327 329
310 309 307 306 304 302 301 299 297 296 295 294 291 292 293 292 294 297 302 303 306 307 308 309 310 314 317 317 318 319 320 321 323
311 311 308 306 304 302 301 298 295 293 292 291 288 287 287 287 288 290 290 294 295 299 301 303 304 304 306 308 311 313 314 314 315
311 309 308 307 304 302 300 298 296 293 290 288 286 285 285 284 284 284 285 285 288 288 292 293 298 299 300 302 304 306 308 309 311
309 308 306 305 304 301 299 297 296 292 289 287 285 283 283 282 282 281 280 281 282 282 283 284 289 293 294 296 298 300 301 302 303
311 308 306 303 301 299 297 295 293 291 288 287 284 283 281 280 280 280 278 277 277 279 279 280 280 286 288 289 292 294 296 297 297
312 310 308 304 302 298 295 293 291 288 287 284 283 282 282 281 279 279 278 278 277 276 278 278 280 281 284 285 286 288 290 292 293
318 315 311 307 304 300 296 292 290 286 285 282 280 281 281 280 279 278 277 277 277 276 276 277 278 278 280 281 282 283 283 285 288
326 322 317 313 307 300 296 293 289 286 283 279 278 279 281 280 279 278 276 276 277 276 275 277 275 275 273 277 279 279 280 278 281
332 329 325 319 312 306 300 292 288 285 281 278 278 278 279 278 278 278 278 276 276 277 276 278 277 277 274 273 276 277 277 277 276
332 332 327 324 318 308 301 294 288 283 281 278 276 276 277 277 275 275 277 277 277 277 277 278 279 277 277 274 273 273 275 279 280
334 333 332 330 324 319 309 296 287 282 278 277 276 276 275 274 276 274 276 276 277 278 278 283 281 279 277 272 274 273 274 277 277
335 334 334 333 332 326 315 301 289 280 276 273 274 274 275 274 274 275 276 276 278 277 280 282 283 281 279 278 277 274 272 275 271
338 339 341 343 342 340 333 314 295 282 276 271 269 272 272 279 279 274 275 276 276 278 281 283 281 282 283 282 283 277 278 276 268
351 351 352 348 352 351 348 330 312 288 274 276 272 269 275 277 279 282 280 277 276 277 278 280 282 285 284 284 287 285 283 279 274
360 357 357 356 357 353 356 346 328 304 282 277 277 276 275 276 275 276 286 282 279 278 279 279 282 285 288 290 288 286 287 288 283